| time (UTC) | temp F | wind direction | speed MPH | gust MPH | rain 1hr in | rain 24hr in | rain mn in | humidity % | barometer mb |
| 20260906103058 | 73 | 0 | 0.0 | 0.0 | 0.00 | 0.00 | 0.00 | 46 | 1014.6 |
| 20260906103038 | 73 | 122 | 0.0 | 0.0 | 0.00 | 0.00 | 0.00 | 45 | 1010.4 |
| 20260906101603 | 73 | 0 | 0.0 | 0.0 | 0.00 | 0.00 | 0.00 | 44 | 1014.6 |
| 20260906101515 | 73 | 122 | 0.0 | 0.0 | 0.00 | 0.00 | 0.00 | 45 | 1010.4 |
| 20260906100111 | 73 | 0 | 0.0 | 0.0 | 0.00 | 0.00 | 0.00 | 46 | 1014.3 |
| 20260906100024 | 73 | 122 | 0.0 | 0.0 | 0.00 | 0.00 | 0.00 | 47 | 1010.0 |
| 20260906094621 | 73 | 0 | 0.0 | 0.0 | 0.00 | 0.00 | 0.00 | 47 | 1014.3 |
| 20260906094513 | 73 | 122 | 0.0 | 0.0 | 0.00 | 0.00 | 0.00 | 48 | 1010.0 |
| 20260906093104 | 73 | 0 | 0.0 | 0.0 | 0.00 | 0.00 | 0.00 | 49 | 1014.3 |
| 20260906093012 | 73 | 122 | 0.0 | 0.0 | 0.00 | 0.00 | 0.00 | 49 | 1010.1 |
| 20260906091604 | 73 | 0 | 0.0 | 0.0 | 0.00 | 0.00 | 0.00 | 48 | 1014.4 |
| 20260906091510 | 73 | 122 | 0.0 | 0.0 | 0.00 | 0.00 | 0.00 | 48 | 1010.2 |
| 20260906090115 | 73 | 0 | 0.0 | 0.0 | 0.00 | 0.00 | 0.00 | 45 | 1014.4 |
| 20260906090009 | 73 | 122 | 0.0 | 0.0 | 0.00 | 0.00 | 0.00 | 45 | 1010.3 |
| 20260906084627 | 73 | 0 | 0.0 | 0.0 | 0.00 | 0.00 | 0.00 | 45 | 1014.5 |
| 20260906084509 | 73 | 122 | 0.0 | 0.0 | 0.00 | 0.00 | 0.00 | 46 | 1010.4 |
| 20260906083056 | 74 | 0 | 0.0 | 0.0 | 0.00 | 0.00 | 0.00 | 45 | 1014.6 |
| 20260906083007 | 74 | 122 | 0.0 | 0.0 | 0.00 | 0.00 | 0.00 | 45 | 1010.5 |
| 20260906081557 | 74 | 0 | 0.0 | 0.0 | 0.00 | 0.00 | 0.00 | 44 | 1014.7 |
| 20260906081505 | 74 | 122 | 0.0 | 0.0 | 0.00 | 0.00 | 0.00 | 44 | 1010.6 |
| 20260906080104 | 74 | 0 | 0.0 | 0.0 | 0.00 | 0.00 | 0.00 | 43 | 1014.7 |
| 20260906080007 | 74 | 122 | 0.0 | 0.0 | 0.00 | 0.00 | 0.00 | 43 | 1010.6 |
| 20260906074600 | 74 | 0 | 0.0 | 0.0 | 0.00 | 0.00 | 0.00 | 43 | 1014.6 |
| 20260906074504 | 74 | 122 | 0.0 | 0.0 | 0.00 | 0.00 | 0.00 | 43 | 1010.5 |
| 20260906073057 | 74 | 0 | 0.0 | 0.0 | 0.00 | 0.00 | 0.00 | 43 | 1014.4 |
| 20260906073003 | 74 | 122 | 0.0 | 0.0 | 0.00 | 0.00 | 0.00 | 43 | 1010.6 |
| 20260906071602 | 74 | 0 | 0.0 | 0.0 | 0.00 | 0.00 | 0.00 | 42 | 1014.8 |
| 20260906071500 | 74 | 122 | 0.0 | 0.0 | 0.00 | 0.00 | 0.00 | 42 | 1010.6 |
| 20260906070104 | 74 | 0 | 0.0 | 0.0 | 0.00 | 0.00 | 0.00 | 42 | 1014.4 |
| 20260906070100 | 74 | 122 | 0.0 | 0.0 | 0.00 | 0.00 | 0.00 | 42 | 1010.2 |
| 20260906064559 | 75 | 122 | 0.0 | 0.0 | 0.00 | 0.00 | 0.00 | 42 | 1010.4 |
| 20260906063100 | 75 | 122 | 0.0 | 0.0 | 0.00 | 0.00 | 0.00 | 42 | 1010.4 |
| 20260906063057 | 75 | 0 | 0.0 | 0.0 | 0.00 | 0.00 | 0.00 | 41 | 1014.3 |
| 20260906061615 | 75 | 122 | 0.0 | 0.0 | 0.00 | 0.00 | 0.00 | 41 | 1010.6 |
| 20260906061556 | 75 | 0 | 0.0 | 0.0 | 0.00 | 0.00 | 0.00 | 41 | 1014.4 |
| 20260906060107 | 76 | 0 | 0.0 | 0.0 | 0.00 | 0.00 | 0.00 | 41 | 1014.4 |
| 20260906054559 | 76 | 0 | 0.0 | 0.0 | 0.00 | 0.00 | 0.00 | 39 | 1014.6 |
| 20260906053058 | 77 | 0 | 0.0 | 0.0 | 0.00 | 0.00 | 0.00 | 38 | 1014.3 |
| 20260906051605 | 78 | 122 | 0.0 | 0.0 | 0.00 | 0.00 | 0.00 | 38 | 1010.6 |
| 20260906051559 | 78 | 0 | 0.0 | 0.0 | 0.00 | 0.00 | 0.00 | 38 | 1014.4 |
| 20260906050056 | 78 | 0 | 0.0 | 2.0 | 0.00 | 0.00 | 0.00 | 38 | 1014.4 |
| 20260906044559 | 79 | 0 | 0.0 | 2.0 | 0.00 | 0.00 | 0.00 | 39 | 1014.3 |
| 20260906044556 | 79 | 122 | 0.0 | 2.0 | 0.00 | 0.00 | 0.00 | 39 | 1010.5 |
| 20260906043056 | 79 | 0 | 0.0 | 2.0 | 0.00 | 0.00 | 0.00 | 34 | 1014.6 |
| 20260906041555 | 79 | 122 | 0.0 | 1.0 | 0.00 | 0.00 | 0.00 | 33 | 1010.6 |
| 20260906040104 | 80 | 0 | 0.0 | 1.0 | 0.00 | 0.00 | 0.00 | 31 | 1014.5 |
| 20260906040054 | 80 | 122 | 0.0 | 1.0 | 0.00 | 0.00 | 0.00 | 32 | 1010.4 |
| 20260906034602 | 80 | 122 | 0.0 | 0.0 | 0.00 | 0.00 | 0.00 | 31 | 1010.4 |
| 20260906034559 | 80 | 0 | 0.0 | 0.0 | 0.00 | 0.00 | 0.00 | 30 | 1014.2 |
| 20260906033101 | 81 | 0 | 0.0 | 4.0 | 0.00 | 0.00 | 0.00 | 29 | 1014.3 |
| 20260906033056 | 81 | 122 | 0.0 | 2.0 | 0.00 | 0.00 | 0.00 | 29 | 1010.2 |
| 20260906031603 | 82 | 122 | 0.0 | 2.0 | 0.00 | 0.00 | 0.00 | 28 | 1014.2 |
| 20260906031554 | 82 | 122 | 0.0 | 2.0 | 0.00 | 0.00 | 0.00 | 28 | 1010.1 |
| 20260906030059 | 82 | 0 | 0.0 | 3.0 | 0.00 | 0.00 | 0.00 | 27 | 1014.1 |
| 20260906030053 | 82 | 122 | 0.0 | 3.0 | 0.00 | 0.00 | 0.00 | 28 | 1010.0 |
| 20260906024556 | 83 | 0 | 0.0 | 4.0 | 0.00 | 0.00 | 0.00 | 28 | 1014.0 |
| 20260906024552 | 83 | 122 | 0.0 | 4.0 | 0.00 | 0.00 | 0.00 | 29 | 1009.7 |
| 20260906023055 | 84 | 0 | 1.0 | 4.0 | 0.00 | 0.00 | 0.00 | 29 | 1014.0 |
| 20260906023052 | 84 | 122 | 1.0 | 4.0 | 0.00 | 0.00 | 0.00 | 29 | 1009.7 |
| 20260906021600 | 85 | 122 | 0.0 | 4.0 | 0.00 | 0.00 | 0.00 | 31 | 1013.9 |
| 20260906021550 | 85 | 122 | 0.0 | 3.0 | 0.00 | 0.00 | 0.00 | 31 | 1009.6 |
| 20260906020057 | 86 | 0 | 0.0 | 5.0 | 0.00 | 0.00 | 0.00 | 33 | 1013.8 |
| 20260906020049 | 86 | 234 | 0.0 | 5.0 | 0.00 | 0.00 | 0.00 | 34 | 1009.5 |
| 20260906014611 | 87 | 219 | 2.0 | 6.0 | 0.00 | 0.00 | 0.00 | 33 | 1013.7 |
| 20260906014553 | 87 | 219 | 2.0 | 6.0 | 0.00 | 0.00 | 0.00 | 34 | 1009.5 |
| 20260906013100 | 87 | 218 | 1.0 | 6.0 | 0.00 | 0.00 | 0.00 | 32 | 1013.8 |
| 20260906013050 | 87 | 218 | 1.0 | 5.0 | 0.00 | 0.00 | 0.00 | 33 | 1009.6 |
| 20260906011613 | 88 | 171 | 1.0 | 7.0 | 0.00 | 0.00 | 0.00 | 32 | 1013.8 |
| 20260906011547 | 88 | 171 | 1.0 | 6.0 | 0.00 | 0.00 | 0.00 | 32 | 1009.5 |
| 20260906010059 | 89 | 200 | 1.0 | 6.0 | 0.00 | 0.00 | 0.00 | 32 | 1013.6 |
| 20260906010047 | 89 | 200 | 0.0 | 5.0 | 0.00 | 0.00 | 0.00 | 33 | 1009.5 |
| 20260906004605 | 89 | 0 | 1.0 | 6.0 | 0.00 | 0.00 | 0.00 | 31 | 1013.6 |
| 20260906004546 | 89 | 209 | 0.0 | 4.0 | 0.00 | 0.00 | 0.00 | 32 | 1009.5 |
| 20260906003103 | 90 | 0 | 0.0 | 7.0 | 0.00 | 0.00 | 0.00 | 31 | 1013.5 |
| 20260906003046 | 90 | 202 | 0.0 | 7.0 | 0.00 | 0.00 | 0.00 | 31 | 1009.3 |
| 20260906001602 | 90 | 0 | 0.0 | 8.0 | 0.00 | 0.00 | 0.00 | 30 | 1013.4 |
| 20260906001546 | 90 | 163 | 0.0 | 7.0 | 0.00 | 0.00 | 0.00 | 31 | 1009.3 |
| 20260906000057 | 91 | 221 | 1.0 | 6.0 | 0.00 | 0.00 | 0.00 | 30 | 1013.4 |
| 20260906000045 | 91 | 221 | 2.0 | 6.0 | 0.00 | 0.00 | 0.00 | 31 | 1009.2 |
| 20260905234553 | 91 | 0 | 2.0 | 6.0 | 0.00 | 0.00 | 0.00 | 29 | 1013.4 |
| 20260905234545 | 91 | 171 | 1.0 | 6.0 | 0.00 | 0.00 | 0.00 | 30 | 1009.2 |
| 20260905233123 | 92 | 0 | 1.0 | 6.0 | 0.00 | 0.00 | 0.00 | 30 | 1013.3 |
| 20260905233045 | 92 | 169 | 0.0 | 5.0 | 0.00 | 0.00 | 0.00 | 30 | 1009.2 |
| 20260905231558 | 92 | 202 | 1.0 | 5.0 | 0.00 | 0.00 | 0.00 | 31 | 1013.4 |
| 20260905231545 | 92 | 202 | 0.0 | 5.0 | 0.00 | 0.00 | 0.00 | 32 | 1009.4 |
| 20260905230058 | 91 | 211 | 0.0 | 6.0 | 0.00 | 0.00 | 0.00 | 31 | 1013.7 |
| 20260905230043 | 91 | 211 | 0.0 | 6.0 | 0.00 | 0.00 | 0.00 | 31 | 1009.6 |
| 20260905224615 | 91 | 209 | 0.0 | 6.0 | 0.00 | 0.00 | 0.00 | 31 | 1013.7 |
| 20260905224542 | 91 | 209 | 1.0 | 4.0 | 0.00 | 0.00 | 0.00 | 31 | 1009.7 |
| 20260905223106 | 91 | 0 | 3.0 | 7.0 | 0.00 | 0.00 | 0.00 | 28 | 1013.8 |
| 20260905223041 | 91 | 186 | 2.0 | 7.0 | 0.00 | 0.00 | 0.00 | 28 | 1009.7 |
| 20260905221607 | 92 | 175 | 1.0 | 6.0 | 0.00 | 0.00 | 0.00 | 29 | 1013.9 |
| 20260905221539 | 92 | 175 | 0.0 | 5.0 | 0.00 | 0.00 | 0.00 | 30 | 1009.8 |
| 20260905220105 | 93 | 223 | 1.0 | 6.0 | 0.00 | 0.00 | 0.00 | 27 | 1014.0 |
| 20260905220038 | 93 | 223 | 1.0 | 6.0 | 0.00 | 0.00 | 0.00 | 27 | 1010.2 |
| 20260905214557 | 92 | 0 | 1.0 | 5.0 | 0.00 | 0.00 | 0.00 | 28 | 1014.2 |
| 20260905214537 | 92 | 145 | 1.0 | 5.0 | 0.00 | 0.00 | 0.00 | 28 | 1010.3 |
| 20260905213106 | 92 | 203 | 1.0 | 9.0 | 0.00 | 0.00 | 0.00 | 24 | 1014.3 |
| 20260905213035 | 92 | 203 | 1.0 | 9.0 | 0.00 | 0.00 | 0.00 | 24 | 1010.5 |
| 20260905211601 | 93 | 146 | 2.0 | 7.0 | 0.00 | 0.00 | 0.00 | 22 | 1014.4 |
| 20260905211535 | 94 | 145 | 1.0 | 6.0 | 0.00 | 0.00 | 0.00 | 22 | 1010.5 |
| 20260905210033 | 94 | 126 | 2.0 | 7.0 | 0.00 | 0.00 | 0.00 | 22 | 1010.7 |
| 20260905204556 | 95 | 172 | 1.0 | 5.0 | 0.00 | 0.00 | 0.00 | 23 | 1014.6 |
| 20260905204533 | 95 | 167 | 0.0 | 5.0 | 0.00 | 0.00 | 0.00 | 23 | 1010.8 |
| 20260905203105 | 94 | 148 | 3.0 | 9.0 | 0.00 | 0.00 | 0.00 | 20 | 1014.7 |
| 20260905203032 | 94 | 135 | 3.0 | 7.0 | 0.00 | 0.00 | 0.00 | 21 | 1010.9 |
| 20260905201613 | 94 | 247 | 1.0 | 5.0 | 0.00 | 0.00 | 0.00 | 17 | 1014.8 |
| 20260905201531 | 94 | 247 | 2.0 | 5.0 | 0.00 | 0.00 | 0.00 | 18 | 1011.0 |
| 20260905200033 | 94 | 115 | 1.0 | 5.0 | 0.00 | 0.00 | 0.00 | 15 | 1011.4 |
| 20260905194607 | 93 | 138 | 2.0 | 6.0 | 0.00 | 0.00 | 0.00 | 12 | 1015.1 |
| 20260905194526 | 93 | 138 | 3.0 | 6.0 | 0.00 | 0.00 | 0.00 | 13 | 1011.6 |
| 20260905193104 | 93 | 209 | 2.0 | 8.0 | 0.00 | 0.00 | 0.00 | 14 | 1015.3 |
| 20260905193027 | 93 | 209 | 1.0 | 7.0 | 0.00 | 0.00 | 0.00 | 14 | 1011.7 |
| 20260905191610 | 92 | 221 | 2.0 | 6.0 | 0.00 | 0.00 | 0.00 | 15 | 1015.5 |
| 20260905191526 | 92 | 221 | 2.0 | 5.0 | 0.00 | 0.00 | 0.00 | 15 | 1011.8 |
| 20260905190132 | 91 | 0 | 0.0 | 7.0 | 0.00 | 0.00 | 0.00 | 17 | 1015.6 |
| 20260905190029 | 91 | 174 | 0.0 | 6.0 | 0.00 | 0.00 | 0.00 | 18 | 1012.1 |
| 20260905184620 | 89 | 0 | 1.0 | 6.0 | 0.00 | 0.00 | 0.00 | 17 | 1015.5 |
| 20260905184521 | 89 | 144 | 2.0 | 6.0 | 0.00 | 0.00 | 0.00 | 18 | 1012.1 |
| 20260905183109 | 88 | 195 | 0.0 | 3.0 | 0.00 | 0.00 | 0.00 | 19 | 1015.7 |
| 20260905183010 | 87 | 195 | 0.0 | 3.0 | 0.00 | 0.00 | 0.00 | 20 | 1012.1 |
| 20260905181603 | 87 | 195 | 0.0 | 2.0 | 0.00 | 0.00 | 0.00 | 21 | 1015.9 |
| 20260905181507 | 87 | 195 | 0.0 | 2.0 | 0.00 | 0.00 | 0.00 | 21 | 1012.4 |
| 20260905180100 | 86 | 0 | 0.0 | 4.0 | 0.00 | 0.00 | 0.00 | 22 | 1015.9 |
| 20260905180007 | 86 | 195 | 0.0 | 4.0 | 0.00 | 0.00 | 0.00 | 22 | 1012.3 |
| 20260905174600 | 84 | 195 | 0.0 | 2.0 | 0.00 | 0.00 | 0.00 | 25 | 1012.2 |
| 20260905174559 | 84 | 0 | 0.0 | 2.0 | 0.00 | 0.00 | 0.00 | 24 | 1015.8 |
| 20260905173109 | 83 | 0 | 0.0 | 3.0 | 0.00 | 0.00 | 0.00 | 24 | 1015.7 |
| 20260905173057 | 83 | 195 | 0.0 | 2.0 | 0.00 | 0.00 | 0.00 | 25 | 1012.2 |
| 20260905171603 | 82 | 0 | 0.0 | 3.0 | 0.00 | 0.00 | 0.00 | 24 | 1015.8 |
| 20260905171555 | 83 | 195 | 0.0 | 3.0 | 0.00 | 0.00 | 0.00 | 25 | 1012.2 |
| 20260905170114 | 80 | 0 | 0.0 | 2.0 | 0.00 | 0.00 | 0.00 | 32 | 1015.7 |
| 20260905170052 | 80 | 195 | 0.0 | 1.0 | 0.00 | 0.00 | 0.00 | 32 | 1012.2 |
| 20260905164559 | 79 | 0 | 0.0 | 2.0 | 0.00 | 0.00 | 0.00 | 36 | 1015.9 |
| 20260905164546 | 79 | 195 | 0.0 | 2.0 | 0.00 | 0.00 | 0.00 | 36 | 1012.2 |
| 20260905163052 | 77 | 0 | 0.0 | 1.0 | 0.00 | 0.00 | 0.00 | 37 | 1015.8 |
| 20260905163044 | 77 | 195 | 0.0 | 1.0 | 0.00 | 0.00 | 0.00 | 38 | 1012.2 |
| 20260905161604 | 74 | 0 | 0.0 | 0.0 | 0.00 | 0.00 | 0.00 | 42 | 1015.8 |
| 20260905161537 | 74 | 195 | 0.0 | 0.0 | 0.00 | 0.00 | 0.00 | 45 | 1012.2 |
| 20260905160100 | 70 | 0 | 0.0 | 0.0 | 0.00 | 0.00 | 0.00 | 47 | 1015.8 |
| 20260905160034 | 70 | 195 | 0.0 | 0.0 | 0.00 | 0.00 | 0.00 | 48 | 1012.2 |
| 20260905154558 | 66 | 0 | 0.0 | 0.0 | 0.00 | 0.00 | 0.00 | 53 | 1015.6 |
| 20260905154528 | 66 | 195 | 0.0 | 0.0 | 0.00 | 0.00 | 0.00 | 54 | 1012.2 |
| 20260905153056 | 62 | 0 | 0.0 | 0.0 | 0.00 | 0.00 | 0.00 | 57 | 1015.6 |
| 20260905153032 | 62 | 195 | 0.0 | 0.0 | 0.00 | 0.00 | 0.00 | 59 | 1012.3 |
| 20260905151603 | 59 | 0 | 0.0 | 0.0 | 0.00 | 0.00 | 0.00 | 63 | 1015.5 |
| 20260905151521 | 59 | 195 | 0.0 | 0.0 | 0.00 | 0.00 | 0.00 | 63 | 1012.2 |
| 20260905150058 | 56 | 0 | 0.0 | 0.0 | 0.00 | 0.00 | 0.00 | 65 | 1015.5 |
| 20260905150020 | 56 | 195 | 0.0 | 0.0 | 0.00 | 0.00 | 0.00 | 66 | 1012.0 |
| 20260905144556 | 55 | 0 | 0.0 | 0.0 | 0.00 | 0.00 | 0.00 | 68 | 1015.4 |
| 20260905144524 | 55 | 195 | 0.0 | 0.0 | 0.00 | 0.00 | 0.00 | 69 | 1011.8 |
| 20260905143053 | 54 | 0 | 0.0 | 0.0 | 0.00 | 0.00 | 0.00 | 71 | 1015.2 |
| 20260905143017 | 54 | 195 | 0.0 | 0.0 | 0.00 | 0.00 | 0.00 | 71 | 1011.7 |
| 20260905141623 | 54 | 0 | 0.0 | 0.0 | 0.00 | 0.00 | 0.00 | 70 | 1015.0 |
| 20260905141515 | 54 | 195 | 0.0 | 0.0 | 0.00 | 0.00 | 0.00 | 71 | 1011.6 |
| 20260905140058 | 54 | 0 | 0.0 | 0.0 | 0.00 | 0.00 | 0.00 | 68 | 1015.1 |
| 20260905140014 | 54 | 195 | 0.0 | 0.0 | 0.00 | 0.00 | 0.00 | 69 | 1011.3 |
| 20260905134603 | 54 | 0 | 0.0 | 0.0 | 0.00 | 0.00 | 0.00 | 68 | 1014.7 |
| 20260905134511 | 54 | 195 | 0.0 | 0.0 | 0.00 | 0.00 | 0.00 | 68 | 1011.1 |
| 20260905133059 | 54 | 0 | 0.0 | 0.0 | 0.00 | 0.00 | 0.00 | 68 | 1014.5 |
| 20260905133012 | 54 | 195 | 0.0 | 0.0 | 0.00 | 0.00 | 0.00 | 68 | 1011.2 |
| 20260905131629 | 55 | 0 | 0.0 | 0.0 | 0.00 | 0.00 | 0.00 | 68 | 1014.5 |
| 20260905131508 | 55 | 195 | 0.0 | 0.0 | 0.00 | 0.00 | 0.00 | 68 | 1011.1 |
| 20260905130101 | 55 | 0 | 0.0 | 0.0 | 0.00 | 0.00 | 0.00 | 68 | 1014.6 |
| 20260905130009 | 55 | 195 | 0.0 | 0.0 | 0.00 | 0.00 | 0.00 | 68 | 1011.1 |
| 20260905124558 | 55 | 0 | 0.0 | 0.0 | 0.00 | 0.00 | 0.00 | 67 | 1014.7 |
| 20260905124514 | 55 | 195 | 0.0 | 0.0 | 0.00 | 0.00 | 0.00 | 68 | 1011.1 |
| 20260905123111 | 55 | 0 | 0.0 | 0.0 | 0.00 | 0.00 | 0.00 | 66 | 1014.5 |
| 20260905123004 | 55 | 195 | 0.0 | 0.0 | 0.00 | 0.00 | 0.00 | 67 | 1011.0 |
| 20260905121558 | 56 | 0 | 0.0 | 0.0 | 0.00 | 0.00 | 0.00 | 67 | 1014.3 |
| 20260905121502 | 56 | 195 | 0.0 | 0.0 | 0.00 | 0.00 | 0.00 | 67 | 1010.8 |
| 20260905120057 | 56 | 0 | 0.0 | 0.0 | 0.00 | 0.00 | 0.00 | 66 | 1014.4 |
| 20260905120000 | 56 | 195 | 0.0 | 0.0 | 0.00 | 0.00 | 0.00 | 66 | 1011.0 |
| 20260905114559 | 56 | 195 | 0.0 | 0.0 | 0.00 | 0.00 | 0.00 | 66 | 1010.9 |
| 20260905114555 | 56 | 0 | 0.0 | 0.0 | 0.00 | 0.00 | 0.00 | 65 | 1014.5 |
| 20260905113110 | 56 | 0 | 0.0 | 0.0 | 0.00 | 0.00 | 0.00 | 65 | 1014.4 |
| 20260905113059 | 56 | 195 | 0.0 | 0.0 | 0.00 | 0.00 | 0.00 | 65 | 1010.9 |
| 20260905111602 | 56 | 0 | 0.0 | 0.0 | 0.00 | 0.00 | 0.00 | 65 | 1014.6 |
| 20260905111557 | 56 | 195 | 0.0 | 0.0 | 0.00 | 0.00 | 0.00 | 65 | 1011.0 |
| 20260905110059 | 57 | 195 | 0.0 | 0.0 | 0.00 | 0.00 | 0.00 | 65 | 1011.0 |
| 20260905110055 | 57 | 0 | 0.0 | 0.0 | 0.00 | 0.00 | 0.00 | 65 | 1014.7 |
| 20260905104600 | 57 | 0 | 0.0 | 0.0 | 0.00 | 0.00 | 0.00 | 64 | 1014.7 |
| 20260905104557 | 57 | 195 | 0.0 | 0.0 | 0.00 | 0.00 | 0.00 | 65 | 1011.1 |